Tracking 26257 objects as of 4-Oct-2022
HD Live streaming from Space Station
objects crossing your sky now

QUANTUTONG 1

Track QUANTUTONG 1 now!
10-day predictions
QUANTUTONG 1 is classified as:


NORAD ID: 43158
Int'l Code: 2018-008D
Perigee: 517.8 km
Apogee: 537.0 km
Inclination: 97.3 °
Period: 95.0 minutes
Semi major axis: 6898 km
RCS: Unknown
Launch date: January 19, 2018
Source: People's Republic of China (PRC)
Launch site: Jiuquan Satellite Launch Center, China (JSC)

Uplink (MHz): 436.100/2415.000/5667.000
Downlink (MHz): 436.100/2415.000/5845.000
Beacon (MHz):
Mode: 9k6 GMSK/5Mbps OFDM
Call sign:
Status: Inactive

aabbcc
Your satellite tracking list
Your tracking list is empty




NASA's NSSDC Master Catalog

Two Line Element Set (TLE):
1 43158U 18008D   22276.11163436  .00007982  00000-0  42687-3 0  9998
2 43158  97.3423 328.7341 0013886 128.6225 291.0767 15.15240401259406
Source of the keplerian elements: AMSAT